Time,TemperatureF,DewpointF,PressureIn,WindDirection,WindDirectionDegrees,WindSpeedMPH,WindSpeedGustMPH,Humidity,HourlyPrecipIn,Conditions,Clouds,dailyrainin,SoftwareType,DateUTC
2013-10-03 00:02:00,56.9,54.5,29.76,SE,135,11.4,14.8,92,0.00,,,0.00,WUHU216HW,2013-10-03 05:02:00,
2013-10-03 00:07:00,56.9,54.5,29.75,ESE,113,6.3,17.2,92,0.00,,,0.00,WUHU216HW,2013-10-03 05:07:00,
2013-10-03 00:12:00,56.9,54.5,29.77,North,0,4.7,17.2,92,0.00,,,0.00,WUHU216HW,2013-10-03 05:12:00,
2013-10-03 00:17:00,57.2,54.9,29.76,East,90,5.1,8.1,92,0.00,,,0.00,WUHU216HW,2013-10-03 05:17:00,
2013-10-03 00:22:00,57.2,54.6,29.76,ESE,113,6.3,8.1,91,0.00,,,0.00,WUHU216HW,2013-10-03 05:22:00,
2013-10-03 00:27:00,57.4,54.8,29.75,ESE,113,6.5,7.6,91,0.00,,,0.00,WUHU216HW,2013-10-03 05:27:00,
2013-10-03 00:32:00,57.8,55.2,29.75,ESE,113,8.7,9.2,91,0.00,,,0.00,WUHU216HW,2013-10-03 05:32:00,
2013-10-03 00:37:00,58.0,54.7,29.76,SSE,158,7.8,9.2,89,0.00,,,0.00,WUHU216HW,2013-10-03 05:37:00,
2013-10-03 00:42:00,58.0,54.7,29.75,SE,135,4.9,7.8,89,0.00,,,0.00,WUHU216HW,2013-10-03 05:42:00,
2013-10-03 00:47:00,58.0,55.1,29.75,SE,135,2.9,7.8,90,0.00,,,0.00,WUHU216HW,2013-10-03 05:47:00,
2013-10-03 00:52:00,58.0,54.7,29.76,SSE,158,3.6,5.4,89,0.00,,,0.00,WUHU216HW,2013-10-03 05:52:00,
2013-10-03 00:57:00,58.0,54.7,29.75,SE,135,3.1,4.3,89,0.00,,,0.00,WUHU216HW,2013-10-03 05:57:00,
2013-10-03 01:02:00,58.0,54.7,29.76,SSE,158,6.9,7.2,89,0.00,,,0.00,WUHU216HW,2013-10-03 06:02:00,
2013-10-03 01:07:00,57.8,54.9,29.76,SSE,158,6.3,7.6,90,0.00,,,0.00,WUHU216HW,2013-10-03 06:07:00,
2013-10-03 01:12:00,57.6,54.7,29.76,SSE,158,4.3,7.6,90,0.00,,,0.00,WUHU216HW,2013-10-03 06:12:00,
2013-10-03 01:17:00,57.6,54.7,29.77,SSE,158,4.9,5.4,90,0.00,,,0.00,WUHU216HW,2013-10-03 06:17:00,
2013-10-03 01:22:00,57.6,54.7,29.76,SE,135,4.0,5.4,90,0.00,,,0.00,WUHU216HW,2013-10-03 06:22:00,
2013-10-03 01:27:00,57.6,54.7,29.76,SE,135,2.5,4.7,90,0.00,,,0.00,WUHU216HW,2013-10-03 06:27:00,
2013-10-03 01:32:00,57.6,54.7,29.76,ENE,68,1.3,3.8,90,0.00,,,0.00,WUHU216HW,2013-10-03 06:32:00,
2013-10-03 01:37:00,57.4,54.5,29.76,NNE,23,2.5,2.7,90,0.00,,,0.00,WUHU216HW,2013-10-03 06:37:00,
2013-10-03 01:42:00,57.4,54.2,29.76,NE,45,1.8,3.1,89,0.00,,,0.00,WUHU216HW,2013-10-03 06:42:00,
2013-10-03 01:47:00,57.4,54.2,29.77,ENE,68,3.6,3.6,89,0.00,,,0.00,WUHU216HW,2013-10-03 06:47:00,
2013-10-03 01:52:00,57.4,54.2,29.77,ENE,68,4.0,4.0,89,0.00,,,0.00,WUHU216HW,2013-10-03 06:52:00,
2013-10-03 02:00:00,57.6,54.4,29.77,NE,45,1.8,4.0,89,0.00,,,0.00,WUHU216HW,2013-10-03 07:00:00,
2013-10-03 02:05:00,57.6,54.4,29.77,NNE,23,2.2,3.1,89,0.00,,,0.00,WUHU216HW,2013-10-03 07:05:00,
2013-10-03 02:10:00,57.6,54.4,29.78,NNE,23,1.8,2.9,89,0.00,,,0.00,WUHU216HW,2013-10-03 07:10:00,
2013-10-03 02:15:00,57.6,54.7,29.78,NE,45,2.7,3.4,90,0.00,,,0.00,WUHU216HW,2013-10-03 07:15:00,
2013-10-03 02:20:00,57.8,54.9,29.78,ENE,68,3.6,3.6,90,0.00,,,0.00,WUHU216HW,2013-10-03 07:20:00,
2013-10-03 02:25:00,57.8,54.5,29.79,NE,45,2.5,3.6,89,0.00,,,0.00,WUHU216HW,2013-10-03 07:25:00,
2013-10-03 02:31:00,57.8,54.5,29.79,North,0,1.8,3.6,89,0.00,,,0.00,WUHU216HW,2013-10-03 07:31:00,
2013-10-03 02:36:00,58.0,54.7,29.79,NNE,23,2.5,4.0,89,0.00,,,0.00,WUHU216HW,2013-10-03 07:36:00,
2013-10-03 02:41:00,58.1,55.3,29.78,NNE,23,2.5,3.6,90,0.00,,,0.00,WUHU216HW,2013-10-03 07:41:00,
2013-10-03 02:46:00,58.0,55.1,29.78,NNE,23,2.9,4.0,90,0.00,,,0.00,WUHU216HW,2013-10-03 07:46:00,
2013-10-03 02:51:00,58.0,55.1,29.78,NNE,23,3.6,4.5,90,0.00,,,0.00,WUHU216HW,2013-10-03 07:51:00,
2013-10-03 02:56:00,58.0,55.1,29.78,North,0,2.5,4.5,90,0.00,,,0.00,WUHU216HW,2013-10-03 07:56:00,
2013-10-03 03:01:00,58.0,55.1,29.78,NNE,23,2.7,4.0,90,0.00,,,0.00,WUHU216HW,2013-10-03 08:01:00,
2013-10-03 03:06:00,58.0,55.4,29.78,North,0,4.3,4.7,91,0.00,,,0.00,WUHU216HW,2013-10-03 08:06:00,
2013-10-03 03:11:00,58.0,55.4,29.78,NNE,23,4.5,5.4,91,0.00,,,0.00,WUHU216HW,2013-10-03 08:11:00,
2013-10-03 03:16:00,58.1,55.5,29.78,NNE,23,1.8,5.4,91,0.00,,,0.00,WUHU216HW,2013-10-03 08:16:00,
2013-10-03 03:21:00,58.1,55.5,29.78,NE,45,2.5,4.0,91,0.00,,,0.00,WUHU216HW,2013-10-03 08:21:00,
2013-10-03 03:26:00,58.1,55.3,29.78,NNE,23,4.0,4.0,90,0.00,,,0.00,WUHU216HW,2013-10-03 08:26:00,
2013-10-03 03:31:00,58.1,55.5,29.78,North,0,4.3,4.3,91,0.00,,,0.00,WUHU216HW,2013-10-03 08:31:00,
2013-10-03 03:36:00,58.1,55.3,29.78,North,0,3.6,4.3,90,0.00,,,0.00,WUHU216HW,2013-10-03 08:36:00,
2013-10-03 03:41:00,58.3,55.7,29.78,NE,45,2.5,4.0,91,0.00,,,0.00,WUHU216HW,2013-10-03 08:41:00,
2013-10-03 03:46:00,58.3,55.7,29.78,NE,45,2.5,3.4,91,0.00,,,0.00,WUHU216HW,2013-10-03 08:46:00,
2013-10-03 03:59:00,58.3,55.7,29.77,North,0,6.5,6.5,91,0.00,,,0.00,WUHU216HW,2013-10-03 08:59:00,
2013-10-03 04:04:00,58.1,55.5,29.77,NNE,23,4.0,6.5,91,0.00,,,0.00,WUHU216HW,2013-10-03 09:04:00,
2013-10-03 04:09:00,58.1,55.5,29.77,NNE,23,2.5,5.1,91,0.00,,,0.00,WUHU216HW,2013-10-03 09:09:00,
2013-10-03 04:14:00,58.3,55.7,29.78,NE,45,2.7,4.7,91,0.00,,,0.00,WUHU216HW,2013-10-03 09:14:00,
2013-10-03 04:19:00,58.1,55.5,29.77,NNE,23,3.4,4.7,91,0.00,,,0.00,WUHU216HW,2013-10-03 09:19:00,
2013-10-03 04:24:00,58.1,55.5,29.77,NNE,23,3.6,3.6,91,0.00,,,0.00,WUHU216HW,2013-10-03 09:24:00,
2013-10-03 04:29:00,58.1,55.5,29.77,NE,45,1.3,4.0,91,0.00,,,0.00,WUHU216HW,2013-10-03 09:29:00,
2013-10-03 04:34:00,58.1,55.5,29.77,NE,45,2.5,4.0,91,0.00,,,0.00,WUHU216HW,2013-10-03 09:34:00,
2013-10-03 04:39:00,58.1,55.5,29.77,NNE,23,2.2,3.4,91,0.00,,,0.00,WUHU216HW,2013-10-03 09:39:00,
2013-10-03 04:44:00,58.1,55.5,29.77,NE,45,5.4,5.4,91,0.00,,,0.00,WUHU216HW,2013-10-03 09:44:00,
2013-10-03 04:49:00,58.3,55.4,29.78,NNE,23,2.9,5.4,90,0.00,,,0.00,WUHU216HW,2013-10-03 09:49:00,
2013-10-03 04:54:00,58.3,55.7,29.78,NNE,23,4.5,4.5,91,0.00,,,0.00,WUHU216HW,2013-10-03 09:54:00,
2013-10-03 04:59:00,58.3,55.7,29.78,ENE,68,3.4,4.7,91,0.00,,,0.00,WUHU216HW,2013-10-03 09:59:00,
2013-10-03 05:04:00,58.1,55.5,29.77,NNE,23,3.6,4.7,91,0.00,,,0.00,WUHU216HW,2013-10-03 10:04:00,
2013-10-03 05:09:00,58.1,55.5,29.77,NNE,23,5.6,6.0,91,0.00,,,0.00,WUHU216HW,2013-10-03 10:09:00,
2013-10-03 05:14:00,58.0,55.4,29.77,NNE,23,5.4,6.0,91,0.00,,,0.00,WUHU216HW,2013-10-03 10:14:00,
2013-10-03 05:19:00,58.0,55.6,29.77,NNE,23,5.1,6.0,92,0.00,,,0.00,WUHU216HW,2013-10-03 10:19:00,
2013-10-03 05:24:00,58.0,55.6,29.77,NNE,23,4.0,6.0,92,0.00,,,0.00,WUHU216HW,2013-10-03 10:24:00,
2013-10-03 05:29:00,57.8,55.4,29.78,NNE,23,4.5,6.3,92,0.00,,,0.00,WUHU216HW,2013-10-03 10:29:00,
2013-10-03 05:34:00,57.8,55.4,29.78,NE,45,4.0,6.9,92,0.00,,,0.00,WUHU216HW,2013-10-03 10:34:00,
2013-10-03 05:39:00,57.6,55.3,29.78,NNE,23,4.0,6.9,92,0.00,,,0.00,WUHU216HW,2013-10-03 10:39:00,
2013-10-03 05:44:00,57.8,55.4,29.77,NNE,23,3.8,5.1,92,0.00,,,0.00,WUHU216HW,2013-10-03 10:44:00,
2013-10-03 05:49:00,57.8,55.4,29.78,North,0,3.6,5.1,92,0.00,,,0.00,WUHU216HW,2013-10-03 10:49:00,
2013-10-03 05:54:00,57.8,55.4,29.78,NNE,23,2.5,4.7,92,0.00,,,0.00,WUHU216HW,2013-10-03 10:54:00,
2013-10-03 05:59:00,57.8,55.2,29.78,NNE,23,3.1,3.4,91,0.00,,,0.00,WUHU216HW,2013-10-03 10:59:00,
2013-10-03 06:04:00,57.8,55.4,29.78,NE,45,3.4,3.8,92,0.00,,,0.00,WUHU216HW,2013-10-03 11:04:00,
2013-10-03 06:09:00,57.8,55.4,29.78,NNE,23,2.2,3.8,92,0.00,,,0.00,WUHU216HW,2013-10-03 11:09:00,
2013-10-03 06:14:00,57.8,55.2,29.79,ENE,68,1.3,3.8,91,0.00,,,0.00,WUHU216HW,2013-10-03 11:14:00,
2013-10-03 06:19:00,58.0,55.4,29.79,ENE,68,1.1,2.5,91,0.00,,,0.00,WUHU216HW,2013-10-03 11:19:00,
2013-10-03 06:24:00,58.0,55.4,29.79,NE,45,4.0,4.0,91,0.00,,,0.00,WUHU216HW,2013-10-03 11:24:00,
2013-10-03 06:29:00,58.0,55.4,29.78,NE,45,3.1,4.0,91,0.00,,,0.00,WUHU216HW,2013-10-03 11:29:00,
2013-10-03 06:34:00,58.0,55.4,29.79,NE,45,6.3,6.3,91,0.00,,,0.00,WUHU216HW,2013-10-03 11:34:00,
2013-10-03 06:39:00,58.0,55.4,29.78,NE,45,4.0,6.3,91,0.00,,,0.00,WUHU216HW,2013-10-03 11:39:00,
2013-10-03 06:44:00,58.0,55.4,29.78,NE,45,5.4,5.6,91,0.00,,,0.00,WUHU216HW,2013-10-03 11:44:00,
2013-10-03 06:49:00,58.0,55.4,29.78,NE,45,4.0,5.4,91,0.00,,,0.00,WUHU216HW,2013-10-03 11:49:00,
2013-10-03 06:54:00,58.0,55.4,29.79,East,90,2.5,5.1,91,0.00,,,0.00,WUHU216HW,2013-10-03 11:54:00,
2013-10-03 06:59:00,58.0,55.6,29.79,ENE,68,4.7,5.1,92,0.00,,,0.00,WUHU216HW,2013-10-03 11:59:00,
2013-10-03 07:04:00,58.0,55.4,29.79,NE,45,2.2,4.7,91,0.00,,,0.00,WUHU216HW,2013-10-03 12:04:00,
2013-10-03 07:09:00,58.1,55.5,29.79,NNE,23,2.5,4.7,91,0.00,,,0.00,WUHU216HW,2013-10-03 12:09:00,
2013-10-03 07:14:00,58.1,55.8,29.79,NNE,23,5.8,5.8,92,0.00,,,0.00,WUHU216HW,2013-10-03 12:14:00,
2013-10-03 07:19:00,58.1,55.8,29.79,NE,45,5.4,5.8,92,0.00,,,0.00,WUHU216HW,2013-10-03 12:19:00,
2013-10-03 07:24:00,58.1,55.8,29.79,NE,45,5.4,5.4,92,0.00,,,0.00,WUHU216HW,2013-10-03 12:24:00,
2013-10-03 07:45:00,58.0,55.4,29.79,NNE,23,4.9,4.9,91,0.00,,,0.00,WUHU216HW,2013-10-03 12:45:00,
2013-10-03 07:50:00,58.1,55.5,29.79,NNE,23,3.8,5.4,91,0.00,,,0.00,WUHU216HW,2013-10-03 12:50:00,
2013-10-03 07:55:00,58.1,55.5,29.79,NE,45,3.4,5.4,91,0.00,,,0.00,WUHU216HW,2013-10-03 12:55:00,
2013-10-03 08:00:00,58.1,55.5,29.78,ENE,68,4.3,4.9,91,0.00,,,0.00,WUHU216HW,2013-10-03 13:00:00,
2013-10-03 08:05:00,58.1,55.5,29.78,NNE,23,3.1,4.3,91,0.00,,,0.00,WUHU216HW,2013-10-03 13:05:00,
2013-10-03 08:10:00,58.1,55.5,29.78,ENE,68,4.0,4.0,91,0.00,,,0.00,WUHU216HW,2013-10-03 13:10:00,
2013-10-03 08:15:00,58.1,55.5,29.78,ENE,68,2.7,4.3,91,0.00,,,0.00,WUHU216HW,2013-10-03 13:15:00,
2013-10-03 08:20:00,58.1,55.5,29.78,NE,45,1.6,4.7,91,0.00,,,0.00,WUHU216HW,2013-10-03 13:20:00,
2013-10-03 08:25:00,58.3,55.7,29.78,ENE,68,4.0,4.7,91,0.00,,,0.00,WUHU216HW,2013-10-03 13:25:00,
2013-10-03 08:30:00,58.3,55.7,29.78,NE,45,5.4,7.8,91,0.00,,,0.00,WUHU216HW,2013-10-03 13:30:00,
2013-10-03 08:35:00,58.3,55.7,29.78,ENE,68,1.8,7.8,91,0.00,,,0.00,WUHU216HW,2013-10-03 13:35:00,
2013-10-03 08:40:00,58.5,55.9,29.78,NE,45,4.0,5.8,91,0.00,,,0.00,WUHU216HW,2013-10-03 13:40:00,
2013-10-03 08:45:00,58.5,55.9,29.78,ENE,68,4.7,5.4,91,0.00,,,0.00,WUHU216HW,2013-10-03 13:45:00,
2013-10-03 08:50:00,58.5,55.9,29.77,NE,45,3.1,7.2,91,0.00,,,0.00,WUHU216HW,2013-10-03 13:50:00,
2013-10-03 08:55:00,58.5,55.6,29.78,East,90,6.3,7.2,90,0.00,,,0.00,WUHU216HW,2013-10-03 13:55:00,
2013-10-03 09:00:00,58.5,55.6,29.78,NNE,23,4.5,6.3,90,0.00,,,0.00,WUHU216HW,2013-10-03 14:00:00,
2013-10-03 09:05:00,58.7,55.8,29.78,NNE,23,4.9,6.5,90,0.00,,,0.00,WUHU216HW,2013-10-03 14:05:00,
2013-10-03 09:10:00,58.7,55.8,29.78,ENE,68,3.4,6.5,90,0.00,,,0.00,WUHU216HW,2013-10-03 14:10:00,
2013-10-03 09:15:00,58.7,55.8,29.79,ENE,68,3.4,4.7,90,0.00,,,0.00,WUHU216HW,2013-10-03 14:15:00,
2013-10-03 09:20:00,58.7,55.8,29.79,NNE,23,6.5,6.9,90,0.00,,,0.00,WUHU216HW,2013-10-03 14:20:00,
2013-10-03 09:25:00,58.7,55.8,29.79,NNE,23,4.5,6.9,90,0.00,,,0.00,WUHU216HW,2013-10-03 14:25:00,
2013-10-03 09:30:00,58.7,55.8,29.79,North,0,7.6,7.6,90,0.00,,,0.00,WUHU216HW,2013-10-03 14:30:00,
2013-10-03 09:35:00,58.7,56.1,29.78,North,0,3.4,7.6,91,0.00,,,0.00,WUHU216HW,2013-10-03 14:35:00,
2013-10-03 09:40:00,58.9,56.0,29.78,North,0,4.5,5.8,90,0.00,,,0.00,WUHU216HW,2013-10-03 14:40:00,
2013-10-03 09:45:00,58.9,56.0,29.79,North,0,7.8,7.8,90,0.00,,,0.00,WUHU216HW,2013-10-03 14:45:00,
2013-10-03 09:50:00,58.7,56.1,29.78,NNE,23,5.1,7.8,91,0.00,,,0.00,WUHU216HW,2013-10-03 14:50:00,
2013-10-03 09:55:00,58.7,56.1,29.78,ENE,68,6.7,8.3,91,0.00,,,0.00,WUHU216HW,2013-10-03 14:55:00,
2013-10-03 10:00:00,58.9,56.0,29.78,North,0,5.6,8.3,90,0.00,,,0.00,WUHU216HW,2013-10-03 15:00:00,
2013-10-03 10:05:00,58.9,56.0,29.78,NNE,23,4.0,6.3,90,0.00,,,0.00,WUHU216HW,2013-10-03 15:05:00,
2013-10-03 10:10:00,58.9,56.0,29.79,NE,45,4.0,6.3,90,0.00,,,0.00,WUHU216HW,2013-10-03 15:10:00,
2013-10-03 10:15:00,58.9,56.3,29.79,NNE,23,6.3,6.3,91,0.00,,,0.00,WUHU216HW,2013-10-03 15:15:00,
2013-10-03 10:20:00,58.9,56.0,29.79,NNE,23,6.5,8.3,90,0.00,,,0.00,WUHU216HW,2013-10-03 15:20:00,
2013-10-03 10:25:00,58.9,56.0,29.79,ESE,113,4.9,8.3,90,0.00,,,0.00,WUHU216HW,2013-10-03 15:25:00,
2013-10-03 10:30:00,58.9,56.0,29.79,NE,45,3.4,6.0,90,0.00,,,0.00,WUHU216HW,2013-10-03 15:30:00,
2013-10-03 10:35:00,58.9,56.3,29.79,NNE,23,4.5,6.0,91,0.00,,,0.00,WUHU216HW,2013-10-03 15:35:00,
2013-10-03 10:40:00,58.9,56.0,29.79,ENE,68,4.0,9.4,90,0.00,,,0.00,WUHU216HW,2013-10-03 15:40:00,
2013-10-03 10:45:00,58.7,56.1,29.78,ENE,68,6.0,9.4,91,0.00,,,0.00,WUHU216HW,2013-10-03 15:45:00,
2013-10-03 10:50:00,58.7,55.8,29.78,NE,45,5.1,6.9,90,0.00,,,0.00,WUHU216HW,2013-10-03 15:50:00,
2013-10-03 10:55:00,58.9,56.3,29.78,NNE,23,6.0,6.9,91,0.00,,,0.00,WUHU216HW,2013-10-03 15:55:00,
2013-10-03 11:00:00,58.7,55.8,29.78,NE,45,5.4,8.5,90,0.00,,,0.00,WUHU216HW,2013-10-03 16:00:00,
2013-10-03 11:05:00,58.5,55.6,29.77,NNE,23,4.5,8.5,90,0.00,,,0.00,WUHU216HW,2013-10-03 16:05:00,
2013-10-03 11:10:00,58.3,55.7,29.77,NNE,23,5.6,7.2,91,0.00,,,0.00,WUHU216HW,2013-10-03 16:10:00,
2013-10-03 11:15:00,58.3,55.7,29.77,NNE,23,3.1,6.0,91,0.00,,,0.00,WUHU216HW,2013-10-03 16:15:00,
2013-10-03 11:20:00,58.5,55.9,29.77,NE,45,4.3,6.0,91,0.00,,,0.00,WUHU216HW,2013-10-03 16:20:00,
2013-10-03 11:25:00,58.5,55.9,29.78,NNE,23,1.8,6.0,91,0.00,,,0.00,WUHU216HW,2013-10-03 16:25:00,
2013-10-03 11:30:00,58.5,55.9,29.79,NE,45,3.6,5.4,91,0.00,,,0.00,WUHU216HW,2013-10-03 16:30:00,
2013-10-03 11:35:00,58.5,55.9,29.79,NE,45,3.1,5.4,91,0.00,,,0.00,WUHU216HW,2013-10-03 16:35:00,
2013-10-03 11:40:00,58.5,55.9,29.79,NNE,23,2.5,4.0,91,0.00,,,0.00,WUHU216HW,2013-10-03 16:40:00,
2013-10-03 11:45:00,58.5,55.9,29.79,NNE,23,1.8,4.3,91,0.00,,,0.00,WUHU216HW,2013-10-03 16:45:00,
2013-10-03 11:50:00,58.5,55.9,29.78,NE,45,3.4,4.9,91,0.00,,,0.00,WUHU216HW,2013-10-03 16:50:00,
2013-10-03 11:55:00,58.7,56.3,29.78,ENE,68,6.0,6.0,92,0.00,,,0.00,WUHU216HW,2013-10-03 16:55:00,
2013-10-03 12:00:00,58.7,56.3,29.78,NE,45,6.0,6.0,92,0.00,,,0.00,WUHU216HW,2013-10-03 17:00:00,
2013-10-03 12:05:00,58.9,56.5,29.77,NNE,23,5.1,6.7,92,0.00,,,0.00,WUHU216HW,2013-10-03 17:05:00,
2013-10-03 12:10:00,59.0,57.1,29.76,NE,45,8.3,8.3,93,0.00,,,0.00,WUHU216HW,2013-10-03 17:10:00,
2013-10-03 12:15:00,59.0,57.1,29.77,NNE,23,4.9,8.3,93,0.00,,,0.00,WUHU216HW,2013-10-03 17:15:00,
2013-10-03 12:20:00,59.0,57.1,29.77,NNE,23,4.9,4.9,93,0.00,,,0.00,WUHU216HW,2013-10-03 17:20:00,
2013-10-03 12:41:00,60.1,57.5,29.75,ENE,68,6.3,6.3,91,0.00,,,0.00,WUHU216HW,2013-10-03 17:41:00,
2013-10-03 12:46:00,59.9,57.3,29.75,NE,45,6.9,9.4,91,0.00,,,0.00,WUHU216HW,2013-10-03 17:46:00,
2013-10-03 12:51:00,59.9,57.3,29.74,NNE,23,11.0,11.0,91,0.00,,,0.00,WUHU216HW,2013-10-03 17:51:00,
2013-10-03 12:56:00,59.8,57.2,29.75,NNE,23,5.8,11.0,91,0.00,,,0.00,WUHU216HW,2013-10-03 17:56:00,
2013-10-03 13:01:00,60.1,57.5,29.76,NNE,23,4.7,9.8,91,0.00,,,0.00,WUHU216HW,2013-10-03 18:01:00,
2013-10-03 13:06:00,60.1,57.5,29.76,North,0,6.3,9.8,91,0.00,,,0.00,WUHU216HW,2013-10-03 18:06:00,
2013-10-03 13:11:00,60.5,57.6,29.76,NE,45,5.1,9.4,90,0.00,,,0.00,WUHU216HW,2013-10-03 18:11:00,
2013-10-03 13:16:00,60.8,58.0,29.76,NE,45,6.3,9.4,90,0.00,,,0.00,WUHU216HW,2013-10-03 18:16:00,
2013-10-03 13:21:00,61.0,58.1,29.76,North,0,3.6,9.4,90,0.00,,,0.00,WUHU216HW,2013-10-03 18:21:00,
2013-10-03 13:26:00,61.6,58.7,29.76,North,0,3.4,6.9,90,0.00,,,0.00,WUHU216HW,2013-10-03 18:26:00,
2013-10-03 13:31:00,61.6,58.7,29.76,NE,45,4.7,6.9,90,0.00,,,0.00,WUHU216HW,2013-10-03 18:31:00,
2013-10-03 13:36:00,61.6,58.7,29.76,NE,45,4.7,4.7,90,0.00,,,0.00,WUHU216HW,2013-10-03 18:36:00,
2013-10-03 13:56:00,60.8,57.3,29.76,NNE,23,8.5,8.5,88,0.00,,,0.00,WUHU216HW,2013-10-03 18:56:00,
2013-10-03 14:01:00,60.8,57.3,29.76,NE,45,5.4,8.5,88,0.00,,,0.00,WUHU216HW,2013-10-03 19:01:00,
2013-10-03 14:06:00,61.0,57.5,29.76,NE,45,5.8,8.5,88,0.00,,,0.00,WUHU216HW,2013-10-03 19:06:00,
2013-10-03 14:11:00,61.0,57.5,29.76,North,0,5.1,7.2,88,0.00,,,0.00,WUHU216HW,2013-10-03 19:11:00,
2013-10-03 14:16:00,61.0,57.5,29.76,North,0,5.8,7.8,88,0.00,,,0.00,WUHU216HW,2013-10-03 19:16:00,
2013-10-03 14:21:00,61.2,57.7,29.76,NNW,338,5.8,7.8,88,0.00,,,0.00,WUHU216HW,2013-10-03 19:21:00,
2013-10-03 14:26:00,61.0,57.5,29.76,North,0,5.4,7.2,88,0.00,,,0.00,WUHU216HW,2013-10-03 19:26:00,
2013-10-03 14:31:00,60.8,57.3,29.76,North,0,4.7,7.2,88,0.00,,,0.00,WUHU216HW,2013-10-03 19:31:00,
2013-10-03 14:36:00,60.8,57.3,29.76,North,0,3.1,6.9,88,0.00,,,0.00,WUHU216HW,2013-10-03 19:36:00,
2013-10-03 14:41:00,60.8,57.3,29.76,North,0,8.3,8.3,88,0.00,,,0.00,WUHU216HW,2013-10-03 19:41:00,
2013-10-03 14:46:00,60.7,57.2,29.76,North,0,5.8,8.3,88,0.00,,,0.00,WUHU216HW,2013-10-03 19:46:00,
2013-10-03 14:51:00,60.7,57.2,29.76,North,0,4.7,7.2,88,0.00,,,0.00,WUHU216HW,2013-10-03 19:51:00,
2013-10-03 14:56:00,60.7,57.2,29.76,NNE,23,4.9,6.3,88,0.00,,,0.00,WUHU216HW,2013-10-03 19:56:00,
2013-10-03 15:01:00,60.7,57.2,29.76,NNE,23,6.3,6.3,88,0.00,,,0.00,WUHU216HW,2013-10-03 20:01:00,
2013-10-03 15:06:00,60.7,57.2,29.77,NE,45,9.8,9.8,88,0.00,,,0.00,WUHU216HW,2013-10-03 20:06:00,
2013-10-03 15:11:00,60.7,57.2,29.77,NNE,23,6.0,10.3,88,0.00,,,0.00,WUHU216HW,2013-10-03 20:11:00,
2013-10-03 15:16:00,60.5,57.2,29.77,North,0,6.7,10.3,89,0.00,,,0.00,WUHU216HW,2013-10-03 20:16:00,
2013-10-03 15:21:00,60.5,57.2,29.76,North,0,7.6,9.8,89,0.00,,,0.00,WUHU216HW,2013-10-03 20:21:00,
2013-10-03 15:26:00,60.5,57.0,29.76,North,0,9.6,10.5,88,0.00,,,0.00,WUHU216HW,2013-10-03 20:26:00,
2013-10-03 15:31:00,60.3,56.8,29.76,NE,45,8.9,10.5,88,0.00,,,0.00,WUHU216HW,2013-10-03 20:31:00,
2013-10-03 15:36:00,60.3,56.8,29.77,North,0,9.4,10.5,88,0.00,,,0.00,WUHU216HW,2013-10-03 20:36:00,
2013-10-03 15:41:00,60.3,57.1,29.76,NNE,23,8.3,9.8,89,0.00,,,0.00,WUHU216HW,2013-10-03 20:41:00,
2013-10-03 15:46:00,60.7,57.4,29.76,NNE,23,5.4,9.4,89,0.00,,,0.00,WUHU216HW,2013-10-03 20:46:00,
2013-10-03 15:51:00,61.2,57.3,29.76,North,0,6.5,9.2,87,0.00,,,0.00,WUHU216HW,2013-10-03 20:51:00,
2013-10-03 15:56:00,61.2,57.3,29.76,NNE,23,10.5,10.5,87,0.00,,,0.00,WUHU216HW,2013-10-03 20:56:00,
2013-10-03 16:01:00,61.2,57.3,29.76,NNE,23,6.5,10.5,87,0.00,,,0.00,WUHU216HW,2013-10-03 21:01:00,
2013-10-03 16:06:00,60.8,57.0,29.76,NNE,23,10.5,10.5,87,0.00,,,0.00,WUHU216HW,2013-10-03 21:06:00,
2013-10-03 16:11:00,60.5,57.0,29.76,NE,45,8.5,10.5,88,0.00,,,0.00,WUHU216HW,2013-10-03 21:11:00,
2013-10-03 16:16:00,60.5,57.0,29.76,North,0,6.9,8.7,88,0.00,,,0.00,WUHU216HW,2013-10-03 21:16:00,
2013-10-03 16:21:00,60.5,57.0,29.76,NNE,23,6.9,9.6,88,0.00,,,0.00,WUHU216HW,2013-10-03 21:21:00,
2013-10-03 16:26:00,60.1,56.6,29.76,NNE,23,5.4,9.6,88,0.00,,,0.00,WUHU216HW,2013-10-03 21:26:00,
2013-10-03 16:31:00,60.1,56.6,29.76,NNE,23,4.7,8.5,88,0.00,,,0.00,WUHU216HW,2013-10-03 21:31:00,
2013-10-03 16:36:00,60.1,56.6,29.77,North,0,4.7,7.6,88,0.00,,,0.00,WUHU216HW,2013-10-03 21:36:00,
2013-10-03 16:41:00,60.1,56.6,29.77,NNE,23,7.6,10.3,88,0.00,,,0.00,WUHU216HW,2013-10-03 21:41:00,
2013-10-03 16:46:00,59.9,56.4,29.77,NNE,23,5.8,10.3,88,0.00,,,0.00,WUHU216HW,2013-10-03 21:46:00,
2013-10-03 16:51:00,59.9,56.4,29.77,NNE,23,6.3,6.9,88,0.00,,,0.00,WUHU216HW,2013-10-03 21:51:00,
2013-10-03 16:56:00,59.8,56.3,29.77,NNE,23,5.4,7.4,88,0.00,,,0.00,WUHU216HW,2013-10-03 21:56:00,
2013-10-03 17:01:00,59.8,56.3,29.77,North,0,5.4,7.6,88,0.00,,,0.00,WUHU216HW,2013-10-03 22:01:00,
2013-10-03 17:06:00,59.6,56.1,29.77,North,0,6.9,7.6,88,0.00,,,0.00,WUHU216HW,2013-10-03 22:06:00,
2013-10-03 17:11:00,59.6,56.1,29.78,NNE,23,5.8,7.2,88,0.00,,,0.00,WUHU216HW,2013-10-03 22:11:00,
2013-10-03 17:16:00,59.6,56.1,29.78,NNE,23,3.4,7.2,88,0.00,,,0.00,WUHU216HW,2013-10-03 22:16:00,
2013-10-03 17:21:00,59.6,56.1,29.78,North,0,2.5,6.3,88,0.00,,,0.00,WUHU216HW,2013-10-03 22:21:00,
2013-10-03 17:26:00,59.6,55.7,29.78,NE,45,5.4,9.2,87,0.00,,,0.00,WUHU216HW,2013-10-03 22:26:00,
2013-10-03 17:31:00,59.4,55.9,29.78,North,0,6.3,9.2,88,0.00,,,0.00,WUHU216HW,2013-10-03 22:31:00,
2013-10-03 17:36:00,59.4,55.5,29.78,NNE,23,6.9,9.6,87,0.00,,,0.00,WUHU216HW,2013-10-03 22:36:00,
2013-10-03 17:41:00,59.4,55.9,29.78,NNE,23,5.8,9.6,88,0.00,,,0.00,WUHU216HW,2013-10-03 22:41:00,
2013-10-03 17:46:00,59.4,55.9,29.78,NNE,23,4.0,7.4,88,0.00,,,0.00,WUHU216HW,2013-10-03 22:46:00,
2013-10-03 17:51:00,59.4,55.9,29.78,NNE,23,4.5,8.1,88,0.00,,,0.00,WUHU216HW,2013-10-03 22:51:00,
2013-10-03 17:56:00,59.4,55.5,29.78,NE,45,6.5,8.1,87,0.00,,,0.00,WUHU216HW,2013-10-03 22:56:00,
2013-10-03 18:01:00,59.4,55.5,29.78,ENE,68,6.9,10.7,87,0.00,,,0.00,WUHU216HW,2013-10-03 23:01:00,
2013-10-03 18:06:00,59.4,55.5,29.78,NNE,23,4.5,10.7,87,0.00,,,0.00,WUHU216HW,2013-10-03 23:06:00,
2013-10-03 18:11:00,59.2,55.4,29.78,NNE,23,3.6,8.5,87,0.00,,,0.00,WUHU216HW,2013-10-03 23:11:00,
2013-10-03 18:16:00,59.2,55.4,29.79,East,90,4.0,8.5,87,0.00,,,0.00,WUHU216HW,2013-10-03 23:16:00,
2013-10-03 18:21:00,59.2,55.4,29.78,NNE,23,4.7,6.7,87,0.00,,,0.00,WUHU216HW,2013-10-03 23:21:00,
2013-10-03 18:26:00,59.2,55.4,29.78,NNE,23,5.4,7.6,87,0.00,,,0.00,WUHU216HW,2013-10-03 23:26:00,
2013-10-03 18:31:00,59.0,55.2,29.79,NNE,23,4.9,7.8,87,0.00,,,0.00,WUHU216HW,2013-10-03 23:31:00,
2013-10-03 18:36:00,59.0,55.2,29.79,NNE,23,4.7,7.8,87,0.00,,,0.00,WUHU216HW,2013-10-03 23:36:00,
2013-10-03 18:41:00,59.0,55.2,29.79,NNE,23,4.7,4.7,87,0.00,,,0.00,WUHU216HW,2013-10-03 23:41:00,
2013-10-03 18:59:00,58.9,55.0,29.79,North,0,3.4,3.4,87,0.00,,,0.00,WUHU216HW,2013-10-03 23:59:00,
2013-10-03 19:04:00,58.9,55.4,29.79,North,0,4.0,6.3,88,0.00,,,0.00,WUHU216HW,2013-10-04 00:04:00,
2013-10-03 19:09:00,58.9,55.4,29.79,NNE,23,3.4,6.3,88,0.00,,,0.00,WUHU216HW,2013-10-04 00:09:00,
2013-10-03 19:14:00,58.9,55.4,29.79,NNE,23,3.4,4.9,88,0.00,,,0.00,WUHU216HW,2013-10-04 00:14:00,
2013-10-03 19:37:00,58.7,55.2,29.78,NNE,23,5.6,5.6,88,0.00,,,0.00,WUHU216HW,2013-10-04 00:37:00,
2013-10-03 19:42:00,58.7,55.4,29.78,NNW,338,5.4,6.9,89,0.00,,,0.00,WUHU216HW,2013-10-04 00:42:00,
2013-10-03 19:47:00,58.7,55.4,29.78,NE,45,7.8,8.7,89,0.00,,,0.00,WUHU216HW,2013-10-04 00:47:00,
2013-10-03 19:52:00,58.5,55.3,29.78,NNE,23,5.4,8.7,89,0.00,,,0.00,WUHU216HW,2013-10-04 00:52:00,
2013-10-03 19:57:00,58.5,55.3,29.78,NNE,23,5.1,5.6,89,0.00,,,0.00,WUHU216HW,2013-10-04 00:57:00,
2013-10-03 20:02:00,58.5,55.3,29.78,NNE,23,2.9,5.4,89,0.00,,,0.00,WUHU216HW,2013-10-04 01:02:00,
2013-10-03 20:07:00,58.5,55.6,29.78,NE,45,6.3,6.3,90,0.00,,,0.00,WUHU216HW,2013-10-04 01:07:00,
2013-10-03 20:12:00,58.3,55.4,29.77,North,0,5.4,8.5,90,0.00,,,0.00,WUHU216HW,2013-10-04 01:12:00,
2013-10-03 20:17:00,58.3,55.4,29.77,NNE,23,5.1,8.5,90,0.00,,,0.00,WUHU216HW,2013-10-04 01:17:00,
2013-10-03 20:22:00,58.3,55.4,29.78,NNW,338,6.3,6.9,90,0.00,,,0.00,WUHU216HW,2013-10-04 01:22:00,
2013-10-03 20:27:00,58.3,55.4,29.79,North,0,5.4,6.7,90,0.00,,,0.00,WUHU216HW,2013-10-04 01:27:00,
2013-10-03 20:32:00,58.3,55.4,29.79,NNE,23,4.3,6.3,90,0.00,,,0.00,WUHU216HW,2013-10-04 01:32:00,
2013-10-03 20:37:00,58.3,55.4,29.79,NE,45,6.0,6.9,90,0.00,,,0.00,WUHU216HW,2013-10-04 01:37:00,
2013-10-03 20:42:00,58.5,55.6,29.80,North,0,2.2,6.9,90,0.00,,,0.00,WUHU216HW,2013-10-04 01:42:00,
2013-10-03 20:47:00,58.5,55.6,29.80,NNE,23,5.1,6.0,90,0.00,,,0.00,WUHU216HW,2013-10-04 01:47:00,
2013-10-03 20:52:00,58.5,55.6,29.80,North,0,4.5,5.1,90,0.00,,,0.00,WUHU216HW,2013-10-04 01:52:00,
2013-10-03 20:57:00,58.5,55.6,29.80,NNW,338,2.5,4.5,90,0.00,,,0.00,WUHU216HW,2013-10-04 01:57:00,
2013-10-03 21:02:00,58.5,55.6,29.80,NNE,23,2.7,6.0,90,0.00,,,0.00,WUHU216HW,2013-10-04 02:02:00,
2013-10-03 21:07:00,58.7,55.8,29.80,NE,45,3.1,6.0,90,0.00,,,0.00,WUHU216HW,2013-10-04 02:07:00,
2013-10-03 21:12:00,58.7,55.8,29.80,NE,45,4.0,5.1,90,0.00,,,0.00,WUHU216HW,2013-10-04 02:12:00,
2013-10-03 21:17:00,58.7,55.4,29.80,North,0,2.2,6.3,89,0.00,,,0.00,WUHU216HW,2013-10-04 02:17:00,
2013-10-03 21:22:00,58.7,55.4,29.81,NNE,23,3.1,6.3,89,0.00,,,0.00,WUHU216HW,2013-10-04 02:22:00,
2013-10-03 21:27:00,58.7,55.4,29.81,NNE,23,3.6,4.3,89,0.00,,,0.00,WUHU216HW,2013-10-04 02:27:00,
2013-10-03 21:32:00,58.7,55.4,29.81,NNE,23,5.4,5.4,89,0.00,,,0.00,WUHU216HW,2013-10-04 02:32:00,
2013-10-03 21:37:00,58.7,55.4,29.81,NNE,23,3.1,5.4,89,0.00,,,0.00,WUHU216HW,2013-10-04 02:37:00,
2013-10-03 21:42:00,58.7,55.4,29.82,North,0,5.6,5.6,89,0.00,,,0.00,WUHU216HW,2013-10-04 02:42:00,
2013-10-03 21:47:00,58.7,55.4,29.82,North,0,4.0,5.6,89,0.00,,,0.00,WUHU216HW,2013-10-04 02:47:00,
2013-10-03 21:52:00,58.5,55.6,29.82,North,0,4.0,5.1,90,0.00,,,0.00,WUHU216HW,2013-10-04 02:52:00,
2013-10-03 21:57:00,58.3,55.4,29.82,NNW,338,3.1,4.7,90,0.00,,,0.00,WUHU216HW,2013-10-04 02:57:00,
2013-10-03 22:02:00,58.3,55.4,29.82,NNW,338,2.9,4.7,90,0.00,,,0.00,WUHU216HW,2013-10-04 03:02:00,
2013-10-03 22:07:00,58.1,54.9,29.82,NNW,338,3.1,4.7,89,0.00,,,0.00,WUHU216HW,2013-10-04 03:07:00,
2013-10-03 22:12:00,58.0,54.7,29.82,NNW,338,3.6,5.4,89,0.00,,,0.00,WUHU216HW,2013-10-04 03:12:00,
2013-10-03 22:17:00,58.0,54.7,29.83,North,0,4.0,5.4,89,0.00,,,0.00,WUHU216HW,2013-10-04 03:17:00,
2013-10-03 22:22:00,57.8,54.5,29.83,North,0,4.0,4.7,89,0.00,,,0.00,WUHU216HW,2013-10-04 03:22:00,
2013-10-03 22:27:00,57.6,54.7,29.84,North,0,5.6,5.6,90,0.00,,,0.00,WUHU216HW,2013-10-04 03:27:00,
2013-10-03 22:32:00,57.6,54.7,29.83,NNE,23,5.1,5.6,90,0.00,,,0.00,WUHU216HW,2013-10-04 03:32:00,
2013-10-03 22:37:00,57.4,54.5,29.83,North,0,6.0,6.0,90,0.00,,,0.00,WUHU216HW,2013-10-04 03:37:00,
2013-10-03 22:42:00,57.2,54.6,29.84,North,0,8.1,8.1,91,0.00,,,0.00,WUHU216HW,2013-10-04 03:42:00,
2013-10-03 22:47:00,57.2,54.6,29.84,North,0,6.0,8.3,91,0.00,,,0.00,WUHU216HW,2013-10-04 03:47:00,
2013-10-03 22:52:00,57.1,54.5,29.84,North,0,5.1,8.3,91,0.00,,,0.00,WUHU216HW,2013-10-04 03:52:00,
2013-10-03 22:57:00,57.1,54.5,29.84,North,0,5.1,7.2,91,0.00,,,0.00,WUHU216HW,2013-10-04 03:57:00,
2013-10-03 23:01:00,57.1,54.7,29.84,North,0,4.7,7.2,92,0.00,,,0.00,WUHU216HW,2013-10-04 04:01:00,
2013-10-03 23:02:00,56.9,54.5,29.84,North,0,4.7,7.2,92,0.00,,,0.00,WUHU216HW,2013-10-04 04:02:00,
2013-10-03 23:03:00,56.9,54.5,29.84,NNE,23,6.0,7.2,92,0.00,,,0.00,WUHU216HW,2013-10-04 04:03:00,
2013-10-03 23:04:00,56.9,54.5,29.84,North,0,7.8,7.8,92,0.00,,,0.00,WUHU216HW,2013-10-04 04:04:00,
2013-10-03 23:05:00,56.9,54.5,29.84,North,0,7.6,7.8,92,0.00,,,0.00,WUHU216HW,2013-10-04 04:05:00,
2013-10-03 23:06:00,56.9,54.5,29.84,North,0,7.6,7.8,92,0.00,,,0.00,WUHU216HW,2013-10-04 04:06:00,
2013-10-03 23:07:00,56.9,54.5,29.84,North,0,6.3,7.8,92,0.00,,,0.00,WUHU216HW,2013-10-04 04:07:00,
2013-10-03 23:08:00,56.9,54.5,29.84,NNW,338,5.4,7.8,92,0.00,,,0.00,WUHU216HW,2013-10-04 04:08:00,
2013-10-03 23:09:00,56.9,54.5,29.84,North,0,8.1,8.1,92,0.00,,,0.00,WUHU216HW,2013-10-04 04:09:00,
2013-10-03 23:10:00,56.7,54.4,29.84,North,0,8.5,8.5,92,0.00,,,0.00,WUHU216HW,2013-10-04 04:10:00,
2013-10-03 23:11:00,56.7,54.4,29.84,NNW,338,7.2,8.5,92,0.00,,,0.00,WUHU216HW,2013-10-04 04:11:00,
2013-10-03 23:12:00,56.7,54.4,29.84,NNW,338,6.9,8.5,92,0.00,,,0.00,WUHU216HW,2013-10-04 04:12:00,
2013-10-03 23:13:00,56.7,54.4,29.84,North,0,6.0,8.5,92,0.00,,,0.00,WUHU216HW,2013-10-04 04:13:00,
2013-10-03 23:14:00,56.7,54.4,29.84,North,0,6.7,8.5,92,0.00,,,0.00,WUHU216HW,2013-10-04 04:14:00,
2013-10-03 23:15:00,56.5,54.2,29.84,North,0,9.4,9.4,92,0.00,,,0.00,WUHU216HW,2013-10-04 04:15:00,
2013-10-03 23:16:00,56.5,54.2,29.84,North,0,6.9,9.4,92,0.00,,,0.00,WUHU216HW,2013-10-04 04:16:00,
2013-10-03 23:17:00,56.7,54.4,29.84,NNW,338,6.3,9.4,92,0.00,,,0.00,WUHU216HW,2013-10-04 04:17:00,
2013-10-03 23:18:00,56.5,54.2,29.84,NNW,338,6.5,9.4,92,0.00,,,0.00,WUHU216HW,2013-10-04 04:18:00,
2013-10-03 23:19:00,56.5,54.2,29.84,North,0,5.8,9.4,92,0.00,,,0.00,WUHU216HW,2013-10-04 04:19:00,
2013-10-03 23:20:00,56.5,54.2,29.84,North,0,7.4,9.4,92,0.00,,,0.00,WUHU216HW,2013-10-04 04:20:00,
2013-10-03 23:21:00,56.5,54.2,29.84,North,0,6.7,9.4,92,0.00,,,0.00,WUHU216HW,2013-10-04 04:21:00,
2013-10-03 23:22:00,56.5,54.2,29.84,North,0,7.8,9.4,92,0.00,,,0.00,WUHU216HW,2013-10-04 04:22:00,
2013-10-03 23:23:00,56.5,54.2,29.84,NNE,23,9.2,9.4,92,0.00,,,0.00,WUHU216HW,2013-10-04 04:23:00,
2013-10-03 23:24:00,56.5,54.2,29.84,North,0,6.5,9.4,92,0.00,,,0.00,WUHU216HW,2013-10-04 04:24:00,
2013-10-03 23:25:00,56.5,54.2,29.84,North,0,8.5,9.2,92,0.00,,,0.00,WUHU216HW,2013-10-04 04:25:00,
2013-10-03 23:26:00,56.5,54.2,29.84,NNW,338,4.9,9.2,92,0.00,,,0.00,WUHU216HW,2013-10-04 04:26:00,
2013-10-03 23:27:00,56.5,54.2,29.84,NNW,338,4.5,9.2,92,0.00,,,0.00,WUHU216HW,2013-10-04 04:27:00,
2013-10-03 23:28:00,56.5,54.2,29.84,North,0,3.6,9.2,92,0.00,,,0.00,WUHU216HW,2013-10-04 04:28:00,
2013-10-03 23:29:00,56.5,54.2,29.84,North,0,7.6,9.2,92,0.00,,,0.00,WUHU216HW,2013-10-04 04:29:00,
2013-10-03 23:30:00,56.5,54.2,29.84,North,0,7.8,9.2,92,0.00,,,0.00,WUHU216HW,2013-10-04 04:30:00,
2013-10-03 23:31:00,56.5,54.2,29.84,North,0,7.8,9.2,92,0.00,,,0.00,WUHU216HW,2013-10-04 04:31:00,
2013-10-03 23:32:00,56.5,54.2,29.84,North,0,8.9,9.2,92,0.00,,,0.00,WUHU216HW,2013-10-04 04:32:00,
2013-10-03 23:34:00,56.3,54.0,29.84,North,0,4.0,8.9,92,0.00,,,0.00,WUHU216HW,2013-10-04 04:34:00,
2013-10-03 23:36:00,56.3,54.0,29.84,NNW,338,5.8,8.9,92,0.00,,,0.00,WUHU216HW,2013-10-04 04:36:00,
2013-10-03 23:38:00,56.3,54.0,29.84,North,0,7.4,8.9,92,0.00,,,0.00,WUHU216HW,2013-10-04 04:38:00,
2013-10-03 23:43:00,56.3,54.0,29.84,North,0,5.4,8.5,92,0.00,,,0.00,WUHU216HW,2013-10-04 04:43:00,
2013-10-03 23:45:00,56.3,54.0,29.84,North,0,5.4,8.5,92,0.00,,,0.00,WUHU216HW,2013-10-04 04:45:00,
2013-10-03 23:46:00,56.3,54.0,29.84,North,0,5.4,8.5,92,0.00,,,0.00,WUHU216HW,2013-10-04 04:46:00,
2013-10-03 23:48:00,56.2,53.8,29.84,NNE,23,8.5,8.5,92,0.00,,,0.00,WUHU216HW,2013-10-04 04:48:00,
2013-10-03 23:53:00,56.2,53.8,29.84,NNW,338,7.4,9.4,92,0.00,,,0.00,WUHU216HW,2013-10-04 04:53:00,
2013-10-03 23:56:00,56.0,53.6,29.84,North,0,5.8,9.4,92,0.00,,,0.00,WUHU216HW,2013-10-04 04:56:00,
2013-10-03 23:57:00,55.8,53.5,29.84,North,0,7.2,9.4,92,0.00,,,0.00,WUHU216HW,2013-10-04 04:57:00,